Total_Precipitation_Accumulation
1.96 2.04 2.07 2.11 1.96 2.08 2.28 2.51 2.41 2.48 2.52 2.30 2.04 1.93 2.00 1.98 2.08 2.06 2.03 2.25 2.19 2.20 2.68 2.81 2.48 2.13 1.95 1.68 1.47 1.25 1.12 1.04 0.91 0.72 0.61 0.66 0.73 0.80 0.73 0.63 0.59 0.55 0.48
2.37 2.32 2.17 2.18 2.08 2.10 2.21 2.42 2.48 2.82 2.79 2.72 2.32 2.11 2.13 2.15 2.17 2.28 2.20 2.47 2.35 2.10 2.36 2.63 2.71 2.55 2.30 2.09 1.81 1.53 1.32 1.23 1.08 0.81 0.70 0.66 0.71 0.78 0.76 0.75 0.70 0.65 0.55
2.55 2.48 2.37 2.19 2.19 2.23 2.38 2.45 2.55 2.83 2.85 2.77 2.60 2.39 2.29 2.05 1.93 1.99 2.03 2.19 2.13 2.03 2.14 2.36 2.66 2.75 2.63 2.49 2.30 2.05 1.72 1.45 1.25 1.01 0.83 0.70 0.63 0.68 0.70 0.73 0.75 0.72 0.61
2.60 2.64 2.43 2.17 2.29 2.25 2.39 2.68 2.78 2.93 3.07 3.08 2.83 2.56 2.40 2.21 1.98 1.93 1.83 1.80 1.99 1.67 1.89 2.15 2.38 2.55 2.82 2.95 2.97 2.88 2.44 1.91 1.51 1.29 1.07 0.87 0.72 0.67 0.63 0.65 0.70 0.66 0.56
2.51 2.61 2.41 2.30 2.37 2.53 2.57 2.41 2.90 3.17 3.22 3.20 2.69 2.57 2.21 2.06 1.90 1.74 1.73 1.60 1.66 1.67 1.75 1.81 1.97 2.12 2.64 3.26 3.59 3.62 3.37 2.68 2.05 1.71 1.50 1.28 1.04 0.89 0.70 0.62 0.61 0.55 0.48
2.39 2.62 2.32 2.29 2.46 2.67 2.70 2.76 3.14 3.25 3.10 3.23 2.73 2.36 1.97 1.64 1.57 1.54 1.45 1.44 1.40 1.33 1.40 1.71 2.04 1.85 2.27 2.85 3.18 3.40 3.64 3.50 2.87 2.20 1.91 1.71 1.52 1.26 0.94 0.75 0.68 0.64 0.56
2.54 2.88 2.54 2.69 2.60 2.62 2.66 2.82 3.03 2.99 2.85 3.21 3.21 2.49 1.73 1.31 1.26 1.14 1.13 1.17 1.10 1.14 1.37 1.80 2.10 2.14 1.90 1.95 2.20 2.57 3.15 3.53 3.37 2.80 2.41 2.17 2.01 1.65 1.26 1.04 0.88 0.78 0.71
2.68 2.65 2.77 2.67 2.68 2.73 2.56 2.65 2.92 2.77 2.43 2.81 3.11 3.05 2.25 1.72 1.29 0.86 0.95 0.99 1.04 1.22 1.28 1.37 1.74 2.10 2.01 2.18 1.94 1.81 2.41 3.10 3.55 3.49 3.10 2.70 2.37 1.98 1.65 1.45 1.21 1.01 0.86
2.71 2.72 2.62 2.51 2.58 2.51 2.43 2.41 2.60 2.71 2.50 2.48 2.85 3.19 2.59 1.95 1.51 1.05 0.97 0.93 1.17 1.47 1.48 1.50 1.62 1.87 2.01 2.22 2.31 2.19 2.04 2.27 2.97 3.79 3.87 3.27 2.60 2.11 1.85 1.79 1.72 1.47 1.25
2.98 2.76 2.56 2.43 2.32 2.22 2.30 2.08 2.32 2.51 2.60 2.27 2.38 2.47 2.34 2.25 2.15 1.56 1.17 1.08 1.34 1.52 1.57 1.56 1.61 1.76 1.90 2.21 2.44 2.31 1.88 1.69 2.05 3.02 3.68 3.61 3.05 2.35 1.97 2.01 2.31 2.20 1.77
3.06 2.73 2.63 2.52 2.40 2.25 2.17 2.10 2.26 2.19 2.23 2.18 2.22 2.22 2.23 2.22 2.12 1.96 1.60 1.45 1.39 1.18 1.21 1.33 1.54 1.80 1.89 2.04 2.35 2.24 2.03 1.95 1.91 2.03 2.38 2.74 2.90 2.64 2.36 2.39 2.80 3.06 2.81
2.67 2.47 2.41 2.35 2.22 2.19 2.17 2.12 2.09 2.06 2.11 2.18 2.15 2.11 2.18 2.20 2.17 2.24 1.93 1.69 1.54 1.29 1.24 1.29 1.43 1.61 1.69 1.76 1.80 1.94 1.90 1.89 1.78 1.70 1.71 1.82 2.06 2.35 2.57 2.79 3.19 3.56 3.70
1.92 1.91 2.00 2.01 1.95 1.97 2.00 2.09 1.97 1.88 1.98 2.11 2.08 2.07 2.13 2.13 2.18 2.28 2.20 1.83 1.70 1.50 1.53 1.44 1.35 1.51 1.54 1.71 1.86 1.82 1.57 1.57 1.43 1.39 1.39 1.44 1.60 1.82 2.00 2.23 2.68 3.18 3.59
1.66 1.73 1.82 1.78 1.75 1.78 1.74 1.94 1.79 1.72 1.82 1.86 1.79 2.09 2.08 1.86 2.05 2.21 2.28 2.27 2.07 1.90 1.96 1.75 1.51 1.47 1.58 1.72 1.82 1.75 1.50 1.37 1.18 1.08 1.08 1.10 1.17 1.32 1.53 1.75 2.00 2.26 2.58
1.65 1.70 1.65 1.71 1.73 1.76 1.83 1.93 1.79 1.74 1.92 1.86 1.81 2.02 2.00 1.88 1.96 2.06 2.26 2.42 2.51 2.31 2.17 2.02 1.71 1.56 1.60 1.65 1.82 1.68 1.66 1.50 1.21 1.09 1.05 1.03 1.01 1.07 1.21 1.41 1.59 1.74 1.96
1.73 1.75 1.71 1.76 1.73 1.71 1.74 1.80 1.60 1.62 1.82 1.87 1.95 2.13 2.09 2.00 2.03 2.07 2.22 2.45 2.69 2.69 2.33 1.91 1.75 1.70 1.79 1.72 1.90 1.65 1.59 1.63 1.38 1.17 1.06 1.07 1.05 1.06 1.10 1.25 1.42 1.56 1.69
1.75 1.71 1.67 1.68 1.67 1.63 1.69 1.72 1.55 1.67 1.79 1.83 1.84 1.99 2.06 2.16 2.18 2.16 2.28 2.39 2.65 2.90 2.62 2.12 2.00 2.01 2.12 2.09 1.98 1.73 1.54 1.46 1.31 1.26 1.11 1.05 1.04 1.05 1.10 1.17 1.31 1.44 1.53
1.72 1.75 1.73 1.71 1.61 1.63 1.80 1.85 1.74 1.81 1.88 1.86 1.89 2.01 1.94 2.09 2.24 2.20 2.32 2.34 2.44 2.74 2.66 2.40 2.34 2.29 2.27 2.18 2.16 1.96 1.66 1.51 1.44 1.39 1.18 1.07 1.05 1.03 1.07 1.10 1.20 1.36 1.48
1.77 1.85 1.88 1.90 1.88 1.90 1.90 1.96 2.05 2.03 1.95 1.86 1.91 1.91 1.88 2.06 2.08 2.18 2.30 2.27 2.25 2.40 2.58 2.52 2.48 2.54 2.51 2.39 2.29 2.12 1.93 1.86 1.58 1.51 1.41 1.30 1.26 1.23 1.22 1.20 1.20 1.27 1.38
1.84 1.96 1.96 2.07 2.24 2.29 2.28 2.22 2.14 2.08 2.01 1.95 1.92 1.88 1.86 1.90 1.94 2.01 2.12 2.22 2.29 2.40 2.52 2.55 2.59 2.73 2.70 2.73 2.68 2.45 2.33 2.24 1.94 1.60 1.59 1.47 1.40 1.30 1.22 1.15 1.13 1.18 1.28
1.76 2.04 2.17 2.23 2.48 2.62 2.47 2.47 2.39 2.29 2.27 2.10 1.98 1.89 1.78 1.79 1.85 1.88 1.85 1.96 2.09 2.23 2.25 2.34 2.41 2.63 2.70 2.81 2.80 2.64 2.51 2.49 2.30 1.88 1.72 1.59 1.51 1.39 1.35 1.31 1.22 1.17 1.21
1.66 1.83 1.96 2.08 2.13 1.98 2.13 2.15 2.14 2.17 2.20 2.10 2.03 1.96 1.82 1.72 1.70 1.66 1.56 1.57 1.65 1.75 1.93 2.14 2.22 2.43 2.62 2.78 2.98 3.04 2.88 2.69 2.54 2.24 2.11 1.97 1.71 1.62 1.45 1.31 1.28 1.11 1.01
1.63 1.72 1.74 1.81 1.78 1.84 1.86 1.64 1.59 1.57 1.73 1.84 1.91 1.90 1.68 1.53 1.62 1.55 1.57 1.53 1.52 1.61 1.71 1.93 2.12 2.22 2.44 2.64 2.88 3.02 3.01 2.89 2.70 2.53 2.39 2.24 1.91 1.70 1.50 1.37 1.29 1.05 0.90
1.68 1.64 1.68 1.72 1.80 1.80 1.70 1.47 1.46 1.42 1.55 1.67 1.74 1.78 1.75 1.68 1.68 1.71 1.63 1.51 1.43 1.50 1.59 1.57 1.61 1.77 2.03 2.38 2.56 2.60 2.74 2.76 2.61 2.45 2.38 2.34 2.08 1.87 1.65 1.51 1.41 1.13 0.96
1.84 1.77 1.81 1.87 1.87 1.82 1.69 1.48 1.48 1.43 1.53 1.57 1.59 1.61 1.63 1.59 1.66 1.54 1.44 1.42 1.42 1.45 1.44 1.42 1.38 1.42 1.56 1.78 2.11 2.25 2.34 2.31 2.20 1.96 1.85 1.92 1.90 1.86 1.78 1.65 1.46 1.29 1.08
2.23 2.21 2.12 2.02 1.91 1.81 1.78 1.49 1.40 1.36 1.44 1.51 1.59 1.56 1.50 1.38 1.35 1.30 1.28 1.40 1.38 1.37 1.41 1.35 1.26 1.20 1.16 1.31 1.62 1.79 1.87 1.91 1.81 1.76 1.50 1.48 1.53 1.58 1.69 1.56 1.40 1.32 1.24